Location: Newark
(45.2500°N, 7.7167°E)
Time: 23:48:04
(UTC+00:00)

ISS - Pass Details

Date: 31 October 2019
Orbit: 412 x 421 km, 51.6° (Epoch: 15 November)

Event Time Altitude Azimuth Distance (km) Brightness Sun altitude
Exits shadow 03:58:09 38° 37° (NE) 656 -2.5 -23.0°
Drops below altitude 10° 04:00:29 10° 57° (ENE) 1,509 -0.1 -22.6°
Sets 04:02:36 0° 61° (ENE) 2,374 1.1 -22.2°
